Theta_e
334 334 333 333 333 333 332 332 331 331 331 330 329 329 328 328 328 327 326 325 324 322 321 320 319 318 317 316 314 313 312 310 308 304 300 299 301 299 299 299 299 299 299 299 299 298 299 305 315 321 324 324 323 323 322 321 322 321 319 319 320 320 319 319 319 317 316 315 315 314 312 314 316 315 315 317 316 315 315 316 317 318 319 319 319
333 334 333 332 333 333 332 332 331 330 330 330 329 329 328 328 328 326 326 325 324 322 321 321 320 318 317 316 315 313 312 311 309 307 305 302 301 299 298 299 299 299 299 299 299 300 298 298 303 310 318 321 323 324 323 323 323 321 320 320 320 321 320 320 319 318 316 316 316 315 313 312 315 315 315 317 316 315 315 315 316 316 316 317 318
332 334 334 333 333 332 332 331 330 330 330 329 329 328 328 327 327 326 326 325 324 323 322 321 320 319 319 318 316 314 313 312 311 309 309 307 305 304 301 300 300 299 298 299 299 299 299 299 298 300 304 310 318 322 322 322 323 322 321 321 321 321 321 320 319 318 317 317 317 316 315 313 313 315 316 316 316 315 315 314 314 315 315 316 317
331 332 333 333 332 331 331 330 329 329 329 328 327 327 327 327 326 325 325 325 324 324 322 321 320 320 319 319 317 316 314 314 313 312 311 310 308 306 305 304 303 301 298 298 298 298 298 298 298 298 298 300 308 316 319 320 320 321 322 322 322 322 322 321 320 320 319 319 318 317 316 314 313 314 316 315 314 315 315 314 313 314 314 315 316
329 329 330 330 330 329 329 328 328 328 328 327 327 326 327 326 325 324 324 323 322 322 321 321 320 320 319 319 318 316 316 315 314 313 313 312 310 308 307 306 305 303 301 299 297 297 297 297 297 297 298 298 300 305 309 310 313 316 319 320 321 322 322 322 322 322 322 320 319 317 316 315 314 314 316 314 313 315 314 313 313 313 313 314 314
327 327 327 327 327 326 326 326 327 327 326 326 326 326 325 324 323 323 323 322 321 321 321 320 320 320 319 319 317 317 317 315 315 314 314 313 311 310 308 305 305 304 303 301 300 298 297 297 296 296 297 297 297 298 299 300 303 307 311 314 317 319 320 321 321 322 322 321 320 319 316 316 315 314 315 314 313 314 314 313 313 313 313 313 313
324 324 324 324 325 325 325 324 325 325 325 324 323 323 323 322 321 321 321 321 320 320 320 321 321 320 319 318 317 316 317 315 315 314 313 313 310 307 306 304 303 303 302 301 302 301 298 296 296 296 296 296 296 296 297 297 299 300 302 305 308 310 313 316 318 319 320 320 320 320 317 316 315 315 315 313 312 313 312 311 312 313 313 312 312
319 320 320 321 322 323 323 322 322 322 322 322 321 320 319 319 320 320 319 318 318 318 318 318 319 320 320 319 317 316 316 315 314 312 311 311 308 305 304 302 301 300 300 300 300 300 298 297 297 296 296 296 296 296 296 297 298 298 298 299 300 302 304 308 310 312 315 317 319 319 317 317 316 315 315 313 312 313 312 312 312 313 313 312 312
317 317 318 318 319 320 319 319 319 319 319 319 318 318 317 317 317 317 316 315 315 315 315 315 316 316 316 317 316 315 314 313 312 310 308 307 305 304 303 301 300 299 299 299 299 300 299 299 299 299 298 298 297 297 296 296 296 296 296 297 298 299 301 302 303 305 307 310 315 319 317 316 316 315 314 313 313 313 313 312 312 312 312 312 312
318 317 317 317 316 316 316 316 316 316 315 315 315 314 314 314 314 313 313 312 312 311 311 312 312 312 312 313 314 313 312 311 309 307 306 305 304 305 303 301 301 300 300 301 301 302 302 302 302 301 301 301 300 299 298 297 296 296 296 297 298 299 300 301 301 302 303 304 309 316 318 317 316 316 315 314 314 313 312 312 312 312 312 312 312
315 315 315 314 313 313 313 312 312 313 312 312 311 310 310 311 311 311 310 308 307 307 308 308 309 310 311 312 312 312 311 308 307 305 305 306 305 304 303 302 301 301 302 302 303 303 303 303 303 302 302 303 303 303 302 301 299 298 297 297 297 298 298 299 299 300 303 305 307 311 315 317 317 317 316 315 315 314 313 312 312 312 312 311 311
311 311 310 310 310 309 309 309 309 309 309 309 308 308 308 309 309 309 308 307 305 305 306 307 309 310 310 311 311 310 309 306 305 306 306 306 305 304 303 302 302 302 302 302 302 303 302 302 301 301 301 302 303 303 304 304 303 302 301 300 299 298 298 297 297 298 300 304 306 308 310 313 316 317 317 317 316 315 314 313 312 312 312 311 311
307 306 305 306 306 305 305 305 305 306 306 306 306 306 307 308 308 307 307 305 304 303 304 306 308 307 308 310 311 309 307 306 305 305 305 304 304 304 303 303 302 301 301 301 301 301 301 301 300 299 300 300 300 301 301 302 303 303 303 303 302 301 301 300 299 298 297 298 301 305 307 309 312 315 316 317 317 316 315 314 313 313 312 311 312
303 303 302 302 302 302 302 301 302 302 301 301 302 303 303 305 306 306 306 304 303 302 302 304 305 305 307 310 310 308 306 305 304 304 304 304 304 303 303 303 301 298 299 300 299 300 300 298 298 298 298 299 299 299 300 300 300 301 302 302 302 302 302 302 301 300 299 297 297 300 304 307 308 310 313 316 317 317 316 315 314 314 313 313 313
300 300 299 299 299 299 299 299 299 298 298 297 297 298 299 301 303 304 305 303 302 301 300 301 302 303 305 308 309 308 307 305 303 303 304 303 303 302 302 302 298 294 296 297 296 297 297 295 295 295 296 296 297 298 299 299 299 299 299 300 300 300 301 301 302 301 300 300 298 299 301 305 307 308 310 314 316 316 316 316 315 314 314 314 313
297 297 297 296 296 296 295 294 294 294 293 293 293 294 295 297 299 300 302 301 301 300 299 298 300 302 303 304 306 307 307 304 302 303 303 302 302 301 301 300 297 293 294 296 294 294 293 292 292 292 293 294 294 296 297 298 298 298 298 297 297 298 298 299 300 300 301 301 301 299 298 301 304 306 307 309 313 315 315 315 316 315 314 314 314
292 292 292 292 291 291 290 290 290 290 290 289 289 289 290 291 293 295 297 297 297 298 297 296 296 298 300 301 303 304 302 300 301 302 300 301 300 299 300 298 294 292 294 295 293 293 293 290 290 290 290 293 293 293 294 295 295 295 296 296 296 297 297 297 298 298 299 300 300 300 299 300 302 304 306 307 308 311 313 314 315 316 315 315 314
288 288 288 288 288 288 288 288 288 288 288 287 287 287 288 288 288 290 292 294 294 294 294 294 293 294 295 297 298 299 299 298 298 298 297 298 297 296 298 296 292 291 294 294 291 292 292 289 289 289 288 291 293 294 294 294 292 292 293 293 293 293 294 295 296 296 297 297 298 298 299 299 299 301 305 306 306 306 309 311 313 314 315 315 315
287 287 287 287 287 287 287 287 287 287 287 287 287 286 287 287 287 287 288 289 291 292 292 292 291 292 292 293 294 295 296 296 296 294 293 294 293 294 295 293 291 291 293 292 290 291 291 288 289 289 288 290 292 293 294 294 293 293 291 288 289 289 289 290 291 293 294 295 296 297 297 298 298 298 301 304 305 305 305 306 309 311 313 315 315
287 287 287 287 287 287 287 287 287 287 286 286 286 286 286 286 287 287 287 287 288 290 291 291 290 290 291 291 291 291 292 293 293 292 292 291 291 293 293 291 290 290 291 291 290 290 290 288 288 289 289 290 291 291 292 293 293 294 291 288 288 288 288 288 288 289 289 290 292 293 295 297 297 298 298 300 304 305 305 305 306 308 310 313 314
287 287 287 287 287 287 287 287 287 286 286 286 286 286 286 286 286 286 286 286 286 287 288 289 290 289 289 290 290 290 290 290 291 291 291 290 290 291 291 290 290 290 290 289 289 289 288 288 288 288 288 290 291 290 290 291 291 292 291 289 288 288 288 288 288 288 288 288 288 289 291 293 295 297 297 297 299 302 304 305 306 307 308 309 311
286 286 286 286 286 286 286 286 286 286 286 286 286 286 286 286 286 285 285 285 285 285 285 286 288 287 287 289 289 289 289 290 290 289 289 290 290 290 290 290 290 290 289 289 289 288 288 288 288 288 288 289 290 289 289 290 290 290 291 290 289 288 288 288 288 288 288 288 288 288 288 289 290 293 295 296 297 298 301 303 305 307 307 307 308
285 286 286 286 286 286 286 286 286 286 286 285 285 285 285 285 285 285 285 285 285 285 284 284 286 286 286 288 288 288 288 289 288 288 288 289 289 289 289 289 289 289 288 288 288 288 288 289 288 288 288 288 289 289 288 289 289 290 291 290 289 288 287 287 287 287 287 287 288 288 288 288 288 289 290 293 294 296 299 302 303 305 307 307 307
285 286 286 286 286 286 286 286 286 285 285 285 285 285 285 284 285 284 284 285 284 284 284 284 284 285 285 286 287 287 287 287 287 287 287 288 288 288 288 288 288 288 288 288 288 288 289 289 289 289 289 289 289 289 289 289 290 290 291 291 289 288 287 287 287 287 287 287 287 288 288 288 288 288 288 289 290 292 296 300 302 303 304 306 307
285 286 286 286 286 286 286 285 285 285 285 284 284 284 284 284 284 284 284 284 284 284 284 284 284 284 284 285 286 286 287 286 286 286 287 287 287 287 287 287 287 287 287 288 288 288 288 288 289 290 290 290 289 289 289 289 289 290 291 290 288 287 286 286 287 287 287 287 287 287 287 287 287 287 287 287 288 288 291 295 299 301 303 304 306
286 286 286 286 286 286 286 285 285 285 284 284 284 284 284 284 283 284 284 283 283 283 283 283 283 283 283 283 284 285 286 286 285 285 286 286 286 286 286 286 287 287 287 287 288 288 288 288 289 289 289 289 288 288 289 289 289 289 289 288 287 286 286 286 286 286 287 287 287 287 287 287 287 287 287 287 287 287 288 289 293 297 300 303 304
287 287 287 287 287 286 286 286 285 285 284 284 284 283 284 283 283 283 283 283 283 283 283 283 283 283 283 283 283 284 285 285 284 284 285 285 285 285 286 286 286 286 287 287 287 287 288 288 288 288 288 288 288 288 288 288 288 288 287 286 286 286 286 286 286 286 286 286 286 286 286 287 287 287 287 287 287 287 287 287 288 290 294 297 299
287 287 287 287 287 287 286 286 286 285 285 284 283 283 283 283 282 283 282 282 283 283 282 282 282 282 282 282 282 283 284 284 283 284 284 284 284 284 285 285 285 285 285 285 286 286 287 287 286 287 287 287 287 287 287 286 286 286 286 286 286 286 286 286 286 287 287 286 285 286 286 286 286 287 287 287 287 287 287 287 287 287 288 290 293
287 287 287 287 287 287 286 286 286 285 285 284 283 283 283 282 282 282 282 282 282 282 282 282 282 282 282 282 282 282 283 283 282 282 283 283 283 283 284 284 284 284 284 284 285 286 286 286 286 286 286 286 286 285 285 285 285 285 285 285 285 285 285 286 286 287 287 286 286 285 285 285 286 286 286 286 287 287 287 287 287 287 287 287 288
287 287 287 287 286 286 286 286 286 285 284 284 283 283 282 282 282 282 282 282 282 282 282 282 282 282 281 281 281 281 282 282 281 282 282 282 283 283 283 283 283 284 284 284 284 285 285 285 285 285 285 285 284 284 284 284 284 285 284 285 285 285 285 285 286 286 286 286 287 286 286 285 285 286 286 286 286 286 287 287 287 286 286 287 287
287 287 286 286 286 286 286 285 285 284 283 283 282 282 282 282 282 281 281 282 282 282 282 281 281 281 281 281 281 281 281 281 281 281 281 282 282 282 282 282 282 283 283 283 283 284 284 284 284 284 284 284 284 284 284 284 283 284 284 284 284 284 284 284 284 285 286 286 287 287 287 287 287 286 285 285 285 285 286 286 287 286 286 286 286
287 286 286 286 286 286 285 285 284 283 282 282 282 282 282 281 281 281 281 281 282 281 281 281 281 281 280 280 280 280 280 280 280 280 280 280 281 281 281 281 282 282 282 283 283 283 283 283 283 283 283 283 283 283 283 283 283 283 283 283 283 283 283 283 284 284 285 286 286 287 287 287 287 286 286 286 286 286 286 286 286 286 286 286 286
287 287 286 286 286 286 285 284 284 283 282 282 281 281 281 281 281 281 281 281 281 281 281 280 280 280 279 279 279 280 280 279 279 279 279 280 280 280 280 280 281 281 281 282 282 282 282 282 282 282 282 282 282 282 283 283 283 282 282 282 282 282 283 283 283 284 284 285 285 286 286 287 287 287 288 288 288 289 289 288 287 286 286 286 286
287 286 286 286 286 285 285 284 283 282 281 281 281 281 281 281 281 281 281 281 281 280 280 279 279 279 279 279 279 279 279 278 278 278 278 279 279 279 280 280 280 280 280 280 280 281 281 281 281 281 281 281 281 281 281 281 281 281 281 281 281 282 282 282 283 283 284 284 285 286 286 287 287 288 288 288 289 289 289 290 290 288 286 286 286
287 286 286 286 285 285 284 283 282 281 281 281 281 280 280 280 280 280 280 280 280 279 279 278 278 278 278 278 278 278 278 277 277 278 278 278 278 278 278 278 278 279 279 279 279 279 280 280 280 280 280 280 280 280 280 280 280 280 280 281 281 281 281 281 282 282 283 284 285 285 286 286 286 287 287 288 288 288 288 288 289 289 288 286 285
286 286 286 285 285 284 283 282 282 281 281 280 280 280 280 280 280 280 280 280 279 278 278 278 278 278 278 278 278 278 277 277 277 277 277 277 277 277 277 277 278 278 278 278 278 279 279 279 279 279 279 279 279 279 279 279 279 279 279 280 280 280 280 281 281 282 283 283 283 284 284 285 285 286 286 287 287 287 287 288 289 289 289 289 287
286 286 285 285 284 283 283 282 281 281 280 280 280 280 280 280 279 279 279 279 278 278 277 278 277 277 277 277 277 277 277 277 277 277 277 277 276 276 276 277 277 277 277 277 277 278 278 278 278 278 278 278 278 278 278 278 278 278 278 278 279 279 280 280 281 281 281 281 281 282 283 284 284 285 285 285 286 286 287 288 288 289 289 290 289
285 285 284 284 283 283 282 282 281 281 280 280 280 280 279 279 279 279 279 278 278 277 277 277 277 277 277 277 277 276 276 276 276 276 276 276 276 276 276 276 276 276 276 276 276 276 276 277 277 277 276 276 276 276 277 277 277 277 277 278 278 279 279 279 279 279 279 280 280 281 281 282 283 283 284 285 285 286 286 287 287 288 288 288 289
284 284 284 284 283 283 282 282 281 281 280 280 280 279 279 279 279 278 278 277 277 277 277 277 277 277 276 276 276 276 276 276 276 276 275 275 275 275 275 275 275 275 275 275 275 275 275 275 275 275 275 275 275 276 276 276 276 276 277 277 277 278 278 278 278 278 278 279 279 279 279 280 281 281 282 284 285 285 286 286 287 287 287 287 287
284 284 283 283 283 282 282 282 281 281 280 280 279 279 279 279 278 278 277 277 277 276 276 276 276 276 276 276 276 276 276 275 275 275 274 274 275 275 274 274 274 274 274 274 274 274 274 274 274 274 274 275 275 275 275 275 275 276 276 276 276 276 277 277 277 277 277 277 277 278 278 279 279 280 280 281 282 282 283 284 284 285 286 287 287
284 284 283 282 282 282 282 282 281 281 280 280 279 279 279 278 278 277 277 276 276 276 276 276 276 276 276 276 276 275 275 275 275 274 273 274 274 274 274 274 274 274 274 274 273 273 273 273 274 274 274 274 274 274 274 275 275 275 275 275 276 276 276 276 276 277 277 277 277 277 278 278 278 278 279 279 279 280 280 281 281 283 285 286 287
284 283 283 282 281 282 282 282 281 281 280 279 279 279 278 278 277 277 277 276 275 275 275 275 276 276 276 275 275 275 275 274 274 273 273 273 274 274 274 274 273 273 273 273 273 273 273 273 273 273 274 274 274 274 274 274 274 275 275 275 276 276 276 276 276 276 277 277 277 277 277 278 278 278 278 278 279 279 280 280 280 282 283 284 285
284 283 282 282 281 282 282 282 281 280 279 279 279 278 278 278 277 276 276 275 274 274 275 275 275 275 275 275 275 274 274 274 273 273 273 273 273 273 273 273 273 273 273 273 273 273 273 273 273 273 273 273 274 274 274 274 274 275 275 275 276 276 276 276 276 277 277 277 277 277 277 277 277 278 278 278 278 279 279 280 281 282 282 283 284
283 283 282 281 282 282 282 281 280 280 279 278 278 278 278 277 276 276 275 274 274 274 274 275 275 275 275 274 274 274 273 273 273 273 272 272 273 273 273 273 273 273 273 273 273 273 273 273 273 273 273 274 274 274 274 274 275 275 275 275 276 276 276 276 276 277 277 277 277 277 277 277 278 278 278 278 278 278 279 280 281 281 282 283 283
283 282 282 282 282 282 282 281 280 279 278 278 278 277 277 277 276 275 275 274 274 274 274 274 274 274 274 273 273 273 273 273 273 272 272 272 272 272 273 273 273 272 273 273 273 274 274 274 274 274 274 274 274 274 275 275 275 275 275 275 276 276 276 276 277 277 277 277 277 277 277 278 277 277 277 278 278 278 278 279 280 281 282 282 283
283 282 282 282 282 282 281 280 279 278 278 277 277 277 277 276 276 275 274 274 273 273 274 274 274 273 273 273 272 272 272 273 272 272 272 272 272 272 273 273 273 273 273 274 274 274 274 274 274 274 274 275 275 275 275 275 275 275 275 276 276 276 276 276 277 277 277 277 277 278 278 278 277 277 277 277 277 278 278 278 279 280 280 281 281
282 282 282 283 282 282 280 279 278 278 277 277 277 276 276 276 275 275 274 274 273 272 272 273 272 272 272 272 272 272 272 272 272 272 273 273 273 273 273 274 274 274 274 274 274 274 274 275 274 274 274 275 275 275 275 275 275 276 276 276 276 276 276 276 276 277 277 277 277 277 277 277 277 277 277 277 277 277 278 278 278 279 279 280 280
281 281 282 283 282 281 280 278 278 277 277 276 276 276 276 275 275 274 274 273 272 271 271 272 272 272 272 272 272 272 272 272 272 273 273 274 274 274 275 275 275 275 275 275 275 275 275 276 275 275 276 276 276 276 276 277 277 277 277 277 277 276 276 276 277 277 277 277 277 277 277 277 277 277 277 277 277 277 277 278 278 278 279 279 280
281 281 282 282 282 280 279 278 277 277 276 276 276 275 275 275 274 274 274 273 272 271 271 272 272 272 272 272 272 272 272 272 272 273 274 275 275 275 276 276 276 276 276 276 276 276 276 276 276 276 277 277 277 277 277 277 278 278 278 278 277 277 277 277 277 277 277 277 277 277 277 277 277 277 277 277 277 277 277 277 277 278 278 279 279
281 281 282 282 281 279 278 277 276 276 276 276 275 275 275 274 274 273 272 271 271 271 271 272 272 272 272 272 272 272 272 273 273 274 275 275 276 276 276 276 276 277 277 277 277 276 276 277 276 276 277 277 277 277 277 277 277 277 277 277 277 277 277 277 277 277 277 277 277 276 277 277 277 277 277 277 277 277 277 277 277 277 278 278 278
280 281 282 281 280 279 278 277 276 276 275 275 275 275 275 274 273 272 271 271 271 271 272 272 272 272 272 272 273 273 273 274 274 275 275 276 276 276 276 276 276 276 276 276 276 276 276 276 276 276 276 276 276 276 276 276 276 276 276 277 277 277 277 277 277 277 277 276 276 276 276 277 277 277 277 277 276 277 277 277 277 277 277 277 277
Wind_Speed
9 10 8 7 8 7 7 6 5 5 5 5 5 4 4 5 4 1 1 1 3 4 5 5 5 4 5 6 7 6 5 4 4 5 5 4 6 8 7 8 8 8 9 9 9 8 7 5 5 6 6 3 3 2 2 4 6 8 8 5 6 8 9 10 9 11 10 10 11 11 8 4 4 6 6 7 8 9 9 9 8 7 7 8 9
6 11 10 7 6 6 5 4 3 4 3 3 3 4 4 5 4 3 2 2 2 2 3 3 3 4 4 5 4 4 4 4 5 4 5 6 7 9 9 8 8 9 9 9 9 9 9 7 7 9 9 7 6 4 3 5 3 2 6 7 8 9 10 10 9 11 10 11 13 12 10 6 4 6 6 6 8 8 8 8 8 8 8 8 8
3 9 11 9 8 7 6 5 5 6 4 3 4 5 5 6 6 5 4 2 3 3 3 2 1 2 5 6 4 3 3 3 4 4 4 4 6 8 9 9 9 9 9 9 9 9 9 9 9 9 10 10 9 8 6 6 4 3 4 5 7 9 10 10 10 11 12 12 14 13 12 9 6 6 5 7 8 8 7 8 8 8 8 8 8
4 4 7 8 9 8 8 6 5 6 5 3 3 3 4 6 7 7 6 4 3 4 1 2 1 3 4 5 5 3 3 3 3 4 4 4 4 5 6 8 8 8 8 8 9 9 9 9 9 9 10 10 10 11 10 9 7 7 7 6 7 7 8 10 10 11 14 16 16 15 13 11 9 7 6 8 9 8 7 7 8 9 9 9 8
8 6 5 5 7 6 6 5 4 3 3 2 1 1 2 4 5 5 5 3 2 2 1 2 2 4 4 5 5 3 4 4 3 3 3 4 4 4 4 6 7 6 7 7 7 8 8 9 9 9 9 10 10 11 12 12 12 11 11 10 9 8 8 9 9 10 12 15 15 14 14 12 11 8 8 9 10 8 7 8 8 8 9 9 9
12 11 11 11 9 9 8 7 6 4 3 2 2 2 3 3 2 2 2 1 0 1 1 2 3 3 4 6 4 4 5 5 4 5 5 5 4 5 5 5 5 6 7 7 7 7 7 8 9 9 9 9 10 10 11 12 13 14 15 14 13 13 12 12 11 11 10 11 13 13 14 13 12 10 10 11 10 8 8 8 8 8 9 9 10
10 10 10 11 10 10 10 9 8 5 4 5 5 4 4 3 2 1 1 1 1 2 3 4 5 5 5 5 4 6 6 5 5 6 6 6 6 7 7 6 6 6 7 6 7 9 8 8 9 9 9 9 10 10 10 11 12 13 15 16 16 16 15 15 15 14 12 11 12 12 14 14 13 12 11 12 11 9 9 10 10 9 9 10 10
8 8 9 10 10 10 10 9 9 7 6 7 7 7 7 6 4 3 3 3 2 2 2 3 4 4 6 6 5 5 5 3 4 4 5 6 6 7 7 8 8 8 8 7 7 8 9 9 9 8 9 9 10 10 10 11 11 12 13 14 15 16 16 17 16 16 16 13 10 9 15 16 15 13 14 14 12 9 10 11 10 10 10 11 11
11 11 13 15 15 15 14 13 12 12 12 12 12 11 10 9 8 7 7 6 5 6 5 5 5 5 6 6 6 5 3 2 2 2 4 5 6 7 8 8 10 10 10 10 10 11 11 11 10 9 8 9 9 10 11 11 12 12 12 13 13 14 15 16 16 17 18 14 9 7 12 17 17 16 16 15 13 12 12 12 11 11 11 11 11
17 17 18 19 19 19 18 17 16 15 15 15 15 13 12 11 10 10 9 9 9 10 10 9 8 8 7 6 6 4 1 1 2 3 4 5 7 8 9 9 10 11 12 13 13 14 14 14 13 12 11 11 11 10 10 11 12 12 12 13 13 14 14 15 15 15 16 15 12 10 11 15 19 20 20 18 16 16 16 15 14 12 11 12 12
19 19 19 19 19 18 17 16 15 15 14 15 14 12 12 11 11 10 11 11 12 11 11 11 8 7 6 4 4 2 1 1 3 5 6 6 7 8 8 8 9 12 14 14 15 16 17 17 17 16 16 15 14 13 12 11 11 12 12 13 13 14 15 15 15 15 15 14 14 13 13 15 18 20 21 20 18 19 19 17 15 13 14 14 12
19 18 18 18 18 18 18 17 16 15 15 16 14 12 11 10 10 10 9 11 13 13 12 9 6 7 5 3 2 1 3 4 6 7 6 6 6 6 7 8 9 12 14 13 14 17 17 17 17 17 18 18 18 17 16 15 14 13 13 14 14 14 15 15 15 15 15 15 15 14 14 16 17 19 20 20 20 20 20 18 16 15 15 15 13
18 19 19 18 18 18 19 19 18 17 17 16 15 13 11 9 8 10 10 11 14 16 15 9 6 7 5 3 2 4 5 7 7 8 6 5 6 7 8 9 12 13 13 12 13 15 14 14 16 17 17 17 18 18 18 17 16 16 16 16 16 16 16 15 15 15 15 16 16 15 15 16 18 19 19 20 21 21 20 19 17 16 16 16 15
19 19 20 20 20 19 19 19 18 17 18 17 16 15 14 12 9 9 9 11 13 16 18 13 9 10 7 3 4 6 6 7 8 10 6 7 7 8 9 10 13 16 14 13 14 14 14 15 17 17 17 17 17 16 16 15 15 17 17 16 16 16 16 16 16 15 15 15 16 16 16 16 17 18 19 20 21 21 21 19 18 18 17 17 16
21 21 22 22 22 21 21 20 18 18 19 20 20 19 18 16 14 11 9 10 11 15 19 17 14 13 8 3 1 2 5 5 14 10 6 8 8 8 10 9 13 17 15 13 15 15 15 17 18 18 18 18 17 16 16 14 15 17 17 16 16 16 16 16 16 16 16 15 15 16 16 16 16 16 18 19 20 22 22 21 21 20 19 17 16
24 24 24 24 24 23 23 23 22 22 22 23 23 23 21 20 18 16 13 11 11 14 17 19 19 15 9 4 3 4 3 5 16 7 6 9 8 9 9 8 12 18 14 12 15 15 15 19 19 19 19 17 18 17 16 16 16 17 16 15 16 16 16 16 16 16 16 16 16 16 16 16 17 16 17 18 20 21 23 24 24 22 20 18 17
26 26 25 25 25 25 25 25 24 24 23 24 25 24 24 23 21 19 17 14 12 12 14 19 21 19 13 6 4 4 3 10 12 4 9 10 8 10 8 7 13 16 12 10 14 14 15 21 20 20 20 17 17 17 16 16 16 17 16 16 17 17 17 17 17 17 17 17 17 17 17 17 17 17 17 18 20 21 23 24 25 25 24 22 20
27 27 26 26 26 26 26 26 26 25 24 24 25 25 25 25 23 22 20 16 13 13 13 15 17 19 17 12 8 5 5 10 7 4 10 9 9 11 6 8 15 16 11 9 14 13 14 21 20 20 21 16 16 16 15 15 15 16 16 17 18 18 18 18 18 18 18 18 18 18 18 18 18 18 18 18 19 22 23 24 24 25 25 25 24
27 26 26 26 26 26 26 26 26 25 24 24 24 24 24 23 23 22 21 19 16 14 14 13 13 15 15 12 10 8 6 7 5 5 7 7 11 11 6 11 18 17 10 10 16 13 15 22 19 18 20 16 16 17 16 15 15 14 15 17 18 19 20 20 20 19 19 19 19 19 19 19 19 19 19 19 18 20 23 25 25 25 25 25 26
26 25 24 24 24 24 23 24 23 23 23 23 22 21 20 20 20 20 20 20 18 14 12 12 12 12 13 11 10 9 8 7 6 7 6 6 10 9 9 16 19 15 10 14 18 14 18 23 18 17 18 15 15 17 17 16 15 14 16 19 20 20 21 22 22 22 21 21 21 21 21 20 20 20 21 21 20 19 20 23 25 25 25 25 26
23 23 22 22 22 21 21 21 21 21 20 19 19 18 18 18 18 18 17 17 16 14 12 11 10 10 11 10 10 10 9 7 7 9 7 6 7 6 13 19 17 14 14 18 19 17 22 24 18 18 17 13 15 17 17 16 16 17 19 23 23 23 24 25 25 24 23 23 23 23 23 22 22 21 22 22 21 21 20 21 22 23 25 26 26
22 21 21 20 20 19 19 19 18 18 17 17 16 16 16 16 16 15 15 14 14 13 13 11 8 9 10 8 8 9 8 7 8 9 9 8 7 8 13 16 14 16 18 19 20 22 24 22 20 20 17 14 16 18 18 17 18 19 20 23 25 27 29 31 30 28 26 25 24 25 25 24 24 23 23 23 23 22 21 21 21 22 23 26 27
20 20 19 18 18 17 17 17 16 15 15 15 14 14 14 14 14 13 13 13 13 13 12 12 9 8 9 8 7 7 7 7 8 9 9 8 8 9 13 15 15 17 19 20 23 23 21 19 20 19 17 17 17 20 21 19 19 18 18 22 26 30 33 34 34 32 30 28 27 27 27 26 25 25 24 24 24 24 23 22 22 22 22 24 26
19 18 17 16 16 15 15 14 14 14 14 14 13 13 13 13 13 12 13 13 12 12 12 12 11 9 9 7 6 6 6 6 7 8 9 9 10 10 13 14 14 16 19 21 21 20 18 19 19 17 16 16 18 21 21 20 20 18 18 21 26 32 35 35 35 34 33 32 31 30 29 28 27 27 26 25 25 25 25 24 23 23 23 23 24
18 17 16 15 14 14 14 13 13 13 13 13 12 12 12 12 13 13 13 13 12 12 12 12 12 11 10 8 7 6 5 5 7 7 8 10 10 11 13 14 13 16 19 18 18 18 18 18 16 14 14 16 19 22 21 20 21 19 20 24 29 33 35 36 35 35 34 34 33 32 31 30 29 28 28 27 27 26 26 25 25 25 24 23 23
17 16 15 14 14 13 13 13 12 12 12 12 12 12 11 12 12 12 12 12 12 12 12 13 13 12 12 11 10 7 5 6 7 7 8 9 10 11 13 13 13 16 17 16 17 17 15 15 15 16 17 20 22 22 20 21 21 21 23 28 32 33 34 35 35 34 34 33 33 33 32 32 31 30 30 29 29 28 28 27 26 26 25 25 24
16 15 14 13 13 13 12 12 12 12 12 12 12 12 12 12 12 12 13 13 12 12 12 13 13 13 12 13 12 8 5 7 8 7 7 8 9 11 11 10 10 11 12 15 16 15 15 17 19 20 20 21 22 21 22 24 24 26 29 32 33 32 31 33 33 33 33 32 33 33 33 33 33 32 32 32 31 31 30 30 29 28 27 27 28
16 15 14 13 13 13 13 13 13 13 13 14 14 13 13 13 13 13 14 15 14 13 13 13 14 13 13 13 13 9 6 7 8 8 7 8 9 10 10 9 9 8 8 10 11 13 19 22 23 24 23 22 24 26 26 28 29 29 31 31 31 32 31 30 30 29 30 32 34 35 35 34 34 34 34 33 33 33 33 33 32 31 30 30 30
15 14 14 14 14 14 14 14 14 14 14 14 14 14 13 13 13 13 14 15 14 13 13 14 15 14 13 14 14 11 8 9 10 9 9 9 9 9 9 10 10 8 7 7 7 12 19 22 23 27 29 29 32 35 33 31 30 29 30 31 30 30 30 29 28 28 29 33 35 35 35 34 35 35 35 35 34 34 35 34 34 34 33 32 31
14 14 14 14 14 14 13 13 13 12 12 12 12 13 12 12 12 12 13 14 13 12 12 13 15 15 14 15 14 12 10 10 11 11 10 10 10 10 10 10 11 10 10 9 9 13 18 20 22 25 28 32 34 38 39 36 34 32 30 31 30 29 29 28 29 31 32 32 32 32 33 34 34 34 34 35 35 35 35 35 35 35 35 34 33
14 14 14 13 12 12 12 11 11 10 10 10 11 11 11 11 10 10 11 13 13 12 12 13 15 15 15 14 13 12 11 12 12 11 11 11 11 12 11 12 12 12 13 12 10 16 21 21 25 26 24 26 28 30 35 36 36 34 31 30 30 31 32 33 32 30 29 29 29 29 30 31 32 33 34 34 35 35 35 35 35 35 36 36 35
13 13 12 11 11 10 10 9 9 9 9 9 10 10 10 10 10 10 11 12 12 12 12 13 13 14 14 14 13 12 12 13 13 12 12 12 12 13 13 13 14 13 15 14 12 20 28 27 27 27 23 24 25 24 27 30 30 30 31 32 33 34 34 34 32 28 26 27 28 28 29 29 30 32 33 33 33 34 34 34 35 35 36 36 36
11 11 10 10 9 9 9 9 8 8 9 9 10 10 10 10 10 11 11 12 12 12 12 12 12 12 13 14 13 11 11 13 14 14 13 13 13 14 13 13 15 13 14 16 15 20 30 32 29 28 23 23 25 22 20 24 26 27 31 34 35 34 32 31 31 30 28 27 27 27 28 29 29 30 31 31 32 32 32 33 34 35 36 36 37
10 9 9 9 9 9 9 9 9 9 10 10 10 10 10 10 11 11 12 12 12 12 12 12 11 12 12 12 12 10 11 13 15 14 13 13 12 13 13 13 15 15 14 16 17 18 26 32 32 30 25 22 23 23 21 24 28 27 27 31 32 31 30 30 31 32 31 29 28 27 27 28 29 29 30 30 31 32 32 32 32 33 35 36 37
8 8 8 8 8 8 9 9 9 10 10 10 11 11 11 11 11 11 11 12 12 12 11 11 11 12 12 11 10 10 11 13 14 13 12 12 12 12 14 14 15 17 15 15 17 18 22 29 31 29 26 22 23 26 25 25 28 27 26 27 28 29 31 31 31 31 29 27 27 27 27 27 28 28 29 30 31 32 33 32 31 32 34 36 37
7 7 6 7 7 8 8 8 9 9 10 10 11 11 11 11 11 11 11 12 11 11 11 11 11 11 11 10 10 10 12 12 12 12 11 11 12 13 15 15 14 16 16 14 16 18 20 26 30 28 26 23 24 26 26 25 26 26 25 26 28 30 31 31 28 27 26 26 28 29 29 28 28 27 28 29 31 32 33 33 32 32 33 34 35
5 5 5 5 6 6 7 8 8 9 10 11 11 11 11 11 12 12 11 11 11 11 11 11 11 11 10 10 11 11 11 12 12 12 12 12 14 14 14 15 14 15 16 15 16 17 19 24 29 29 26 24 23 24 24 24 25 25 25 26 28 29 28 27 27 27 28 29 28 27 27 27 27 27 27 28 29 30 31 32 32 32 32 32 33
3 3 3 4 4 5 7 8 9 10 11 11 12 12 12 12 12 12 12 12 12 12 12 12 11 11 11 11 11 11 11 12 12 12 13 13 14 14 14 15 15 15 16 16 15 17 19 22 25 28 27 24 23 24 23 22 24 26 26 26 25 24 25 27 29 29 28 27 26 26 28 29 29 29 29 29 29 30 30 31 33 33 33 32 32
2 1 1 2 3 4 6 8 9 10 11 12 13 13 13 13 12 12 12 12 13 13 12 12 11 11 11 11 11 12 11 12 12 13 15 16 15 14 14 14 14 15 15 16 15 16 19 21 22 24 26 25 23 23 23 23 23 23 23 25 24 23 24 26 28 28 28 29 30 29 28 28 29 29 29 29 27 26 27 27 28 30 31 32 31
3 1 1 2 3 4 6 8 10 11 12 13 13 13 13 13 12 13 13 13 13 13 13 13 12 11 12 12 12 12 12 12 14 17 18 17 15 14 14 13 14 14 15 15 15 16 18 20 21 22 24 25 23 22 23 23 22 21 20 23 24 25 25 26 26 27 28 30 31 29 26 24 25 26 26 28 28 28 29 29 28 28 28 28 28
4 3 3 3 3 5 7 9 10 12 13 13 13 13 13 13 13 13 14 13 13 13 13 13 12 12 12 13 13 13 14 16 18 19 18 15 14 14 14 13 13 14 15 15 15 16 18 19 21 21 22 24 22 22 22 22 22 23 22 23 24 24 24 26 25 24 25 27 29 29 27 24 25 27 27 28 30 29 31 32 31 30 28 26 26
6 5 5 5 5 6 7 9 11 12 13 13 13 13 13 13 14 14 14 14 14 14 14 13 13 13 12 14 15 16 17 19 19 17 15 14 14 14 14 14 14 15 16 16 16 17 18 19 20 20 21 23 22 22 23 23 24 25 23 22 22 23 23 24 24 22 22 24 27 30 29 26 27 30 28 28 29 28 28 29 29 29 29 29 29
8 8 8 7 6 7 8 10 11 12 13 14 13 13 13 13 14 15 15 15 15 15 14 13 13 13 13 14 16 17 18 18 17 16 15 15 15 15 15 15 15 15 15 17 17 17 18 19 20 20 21 24 24 24 24 25 25 24 23 22 22 24 23 20 20 20 21 24 28 33 33 29 28 30 30 28 28 27 27 27 27 27 28 30 31
11 10 9 8 7 8 10 11 12 12 13 14 13 13 13 12 13 14 15 15 15 15 14 14 13 14 15 15 16 17 18 17 17 18 16 15 14 14 15 15 15 15 15 17 18 19 19 20 21 22 23 26 28 26 24 25 25 25 24 24 23 24 24 22 23 25 25 26 30 34 35 30 26 29 31 28 27 27 26 26 26 27 27 28 29
13 12 11 10 9 10 11 12 12 13 13 13 13 13 13 13 13 14 15 16 15 15 15 13 13 15 16 16 16 16 16 15 15 15 15 15 15 15 15 15 15 15 16 18 20 21 23 24 26 26 26 27 29 28 26 26 27 27 27 26 25 25 26 26 27 29 30 30 30 33 34 29 25 29 31 28 27 28 28 27 26 26 27 28 29
16 14 12 12 11 12 12 13 13 13 13 13 13 13 13 13 13 14 16 17 16 16 15 14 15 17 17 16 15 16 15 14 14 14 14 16 16 16 17 17 19 20 21 23 24 24 26 28 30 31 30 29 30 31 30 29 29 29 29 29 28 27 29 31 33 35 36 33 29 28 28 26 25 29 32 29 27 28 28 27 26 26 27 28 30
18 15 14 13 13 13 14 14 14 14 13 12 13 13 13 13 14 14 16 17 17 18 18 16 16 16 15 15 15 16 16 15 14 14 16 17 18 20 23 25 28 29 29 30 30 31 32 32 32 33 33 33 35 36 36 35 34 34 34 35 35 34 36 38 37 36 33 29 25 24 24 25 25 28 31 30 29 30 29 27 26 26 27 28 30
19 17 15 15 15 15 14 15 15 14 12 12 13 13 13 13 14 15 16 17 16 17 17 16 14 13 13 14 15 15 16 16 15 16 17 18 20 24 27 29 31 32 34 36 35 34 35 35 34 33 34 36 38 40 40 38 38 38 39 40 38 36 35 32 28 26 24 23 22 22 24 25 24 27 31 30 30 31 29 27 26 25 26 29 30
21 18 17 16 16 16 16 15 16 15 12 11 13 13 13 13 14 15 16 16 15 14 14 14 13 12 12 13 14 15 16 17 17 18 19 20 22 26 28 30 32 33 35 37 36 32 31 32 33 34 36 38 39 40 39 38 37 37 36 34 31 29 28 22 19 21 24 23 21 21 23 25 24 27 30 30 30 30 28 27 27 25 25 25 25
22 20 18 18 18 17 16 15 15 15 13 11 12 13 13 13 14 15 15 14 12 12 12 12 12 12 12 13 14 16 17 17 18 19 20 21 24 27 29 31 31 31 30 30 29 27 27 29 32 34 35 35 36 36 36 34 33 33 32 32 30 29 27 22 20 23 23 22 21 20 21 23 23 24 27 28 28 29 26 26 25 23 23 24 26
22 21 19 19 19 18 17 16 15 16 14 11 11 13 13 13 13 14 13 12 11 11 11 11 12 12 13 14 15 16 17 18 19 20 21 23 26 29 29 29 28 28 27 27 28 29 30 31 31 31 31 30 30 30 30 30 31 30 31 32 31 29 28 26 24 21 16 15 19 20 20 21 21 22 24 21 19 19 21 22 22 22 25 27 29
Wind_Direction
227 217 219 220 216 211 204 194 193 202 201 203 223 236 233 236 230 189 191 172 49 42 40 34 33 31 28 36 44 40 28 10 345 327 322 328 314 312 320 320 317 318 318 317 317 315 307 281 262 267 283 287 270 287 285 285 297 287 295 313 290 287 297 307 309 302 311 325 332 339 331 320 314 325 331 324 328 332 331 334 339 340 342 344 341
220 213 212 213 218 216 196 178 180 189 200 208 211 223 223 222 222 216 215 164 116 94 75 39 15 23 15 20 38 37 38 28 11 352 327 313 307 309 311 313 312 311 309 309 306 307 306 295 279 269 273 276 272 298 299 288 322 275 283 303 293 290 295 305 305 289 297 314 319 324 321 317 310 322 330 317 317 329 336 337 336 332 328 338 345
177 204 211 214 217 208 180 167 178 179 178 188 200 214 223 230 234 239 252 223 176 177 135 76 9 352 358 4 18 20 27 33 27 22 1 325 317 316 315 312 309 308 305 304 302 300 302 301 294 282 279 276 266 276 291 300 322 298 281 280 274 287 293 302 307 291 290 303 310 311 307 304 304 316 312 300 307 318 332 334 333 331 327 327 332
108 175 205 210 201 191 181 178 183 190 192 182 194 227 251 264 266 265 272 277 247 229 185 65 342 319 338 353 2 358 355 14 22 16 19 18 4 346 332 328 321 313 304 300 299 298 299 299 301 297 290 286 274 270 277 284 296 302 302 288 274 280 282 284 288 289 290 292 296 296 293 290 297 305 286 290 304 305 318 325 325 324 323 321 313
83 101 126 147 151 144 142 131 116 148 179 155 122 283 303 305 296 278 274 298 269 227 20 16 323 329 327 332 346 342 338 351 356 344 359 23 21 9 356 347 346 334 315 305 299 296 297 299 300 301 299 296 287 277 276 278 283 291 295 293 296 301 298 290 282 289 293 288 284 278 277 280 285 289 277 289 304 298 304 312 312 313 314 316 309
85 89 92 95 97 93 92 90 86 98 116 97 65 48 24 5 357 317 301 354 23 253 350 292 284 313 313 321 329 316 327 335 331 332 342 358 358 358 3 356 356 342 326 330 326 313 307 305 301 299 300 299 297 293 288 285 284 284 285 283 286 297 305 306 301 306 304 289 281 264 260 273 276 275 276 289 302 289 285 297 299 302 302 305 305
82 83 86 87 87 89 88 83 77 78 96 94 79 70 55 39 63 61 6 24 352 307 300 277 282 285 284 301 307 312 329 330 328 335 335 346 354 351 357 354 349 340 337 354 346 328 323 320 312 306 307 306 303 301 299 299 294 287 285 283 282 287 294 298 299 303 304 301 298 268 251 264 272 272 277 290 303 289 282 295 293 291 296 297 298
88 78 85 89 92 95 94 93 91 91 97 96 89 82 78 75 80 92 85 71 59 15 344 321 307 288 281 290 293 306 327 328 329 339 335 349 2 358 3 1 360 3 2 12 6 347 345 346 338 328 327 325 317 310 306 304 302 295 289 289 287 287 290 293 294 294 296 303 314 285 260 264 270 272 279 291 300 283 279 294 291 284 286 285 286
94 88 94 95 94 93 91 93 95 95 90 87 88 83 82 80 74 79 82 70 55 40 17 3 358 345 323 314 316 320 332 341 336 349 356 12 22 18 25 23 22 31 30 28 25 15 9 8 4 358 354 349 341 331 323 314 308 303 299 299 297 296 295 293 293 292 293 294 296 285 269 271 276 278 282 287 289 279 272 282 288 282 275 275 276
92 95 100 97 95 93 91 91 89 90 86 82 82 76 72 69 63 58 54 49 39 26 11 3 357 352 348 337 330 334 336 340 10 36 38 38 30 26 35 37 34 36 33 28 19 12 9 6 5 4 360 354 352 346 339 333 324 319 313 310 307 306 303 298 296 296 298 296 288 277 267 266 271 278 283 283 281 278 275 279 287 277 266 277 279
90 92 94 93 91 88 87 84 81 81 80 79 74 67 59 51 50 45 38 40 35 20 5 0 350 336 330 321 322 347 39 55 64 63 49 37 32 32 40 42 35 24 18 14 4 360 358 356 355 353 348 342 340 339 337 337 333 332 328 323 319 314 311 305 301 300 303 307 302 293 281 270 266 270 274 275 275 277 277 279 282 273 268 280 279
92 90 87 87 86 83 80 76 75 75 72 72 68 65 59 47 48 47 42 38 32 26 13 1 342 328 309 297 302 92 76 85 72 48 32 31 40 49 50 43 30 17 11 9 2 357 354 352 351 347 343 338 335 331 328 327 326 327 328 327 326 323 320 316 310 305 302 305 307 304 296 286 277 271 267 263 263 271 276 275 276 272 269 279 279
93 92 86 84 83 82 79 74 73 74 72 71 67 68 64 54 49 48 50 40 30 25 19 13 353 344 332 314 168 133 90 96 63 27 28 41 50 52 48 39 25 17 12 9 3 358 357 354 352 350 347 343 339 333 329 327 322 320 319 320 321 322 322 321 319 314 306 302 302 304 302 296 288 281 275 266 258 263 270 269 271 270 269 278 280
90 91 89 86 84 83 81 75 70 68 71 72 69 69 65 58 50 45 53 48 39 25 20 25 4 342 331 315 144 119 108 107 32 16 59 54 49 52 41 35 23 17 13 9 5 4 3 358 354 354 351 347 344 340 336 332 325 320 316 314 315 315 316 316 319 318 314 308 302 303 305 304 299 288 281 272 260 258 265 267 266 266 267 274 276
87 88 88 88 86 85 84 79 73 68 71 72 70 69 64 59 53 47 48 47 47 32 26 30 9 348 338 321 95 79 146 102 10 14 82 44 43 46 29 31 20 13 13 11 10 9 4 0 358 355 352 351 349 345 340 336 331 329 327 325 321 317 315 312 314 314 313 312 307 305 303 304 306 298 287 281 270 260 260 263 263 261 260 265 272
88 87 88 89 89 88 87 84 79 75 73 70 69 68 64 61 56 52 47 39 42 37 33 34 26 17 5 328 320 333 147 26 353 3 61 28 43 33 18 35 15 5 8 9 7 6 2 0 360 356 353 354 354 351 348 344 339 339 340 340 335 328 324 319 316 316 314 314 310 305 303 303 306 302 292 287 285 277 269 265 262 259 257 257 264
90 89 88 88 87 87 85 83 81 77 73 70 67 66 65 64 61 57 51 42 38 38 37 36 37 38 30 13 351 352 16 349 335 343 14 11 29 15 13 31 7 359 1 360 359 359 357 356 355 357 356 353 352 353 354 352 350 352 352 350 346 341 337 332 328 325 321 319 314 308 307 305 304 305 299 288 284 285 285 281 273 266 262 258 258
90 88 86 84 82 82 80 79 78 76 74 71 67 64 63 63 61 59 57 52 46 41 37 33 37 41 40 40 33 18 349 341 334 335 342 344 355 350 347 359 354 353 352 349 353 350 348 350 348 351 354 351 348 348 348 348 352 358 358 355 353 351 348 343 338 333 328 323 319 316 312 306 301 302 306 300 286 279 279 284 285 279 273 263 255
88 85 82 80 78 77 75 75 74 72 70 68 66 62 59 58 58 58 57 56 54 45 35 30 33 34 34 37 31 22 3 353 354 335 323 321 335 331 327 342 342 346 342 334 343 338 334 342 341 342 348 347 345 343 339 337 340 347 348 349 352 353 352 349 344 339 334 328 323 319 315 311 307 302 302 304 300 288 277 276 279 282 283 275 260
85 82 79 77 74 72 71 70 69 68 66 63 62 60 57 55 54 54 54 53 53 50 39 32 31 25 21 23 21 14 5 3 359 344 328 310 326 328 324 329 332 339 334 324 332 327 324 335 336 333 336 337 338 338 334 330 330 327 327 334 340 344 346 346 343 340 337 334 330 324 318 313 310 306 302 302 305 303 290 281 278 277 280 281 272
83 81 78 74 72 70 68 67 65 64 63 61 58 56 53 50 48 48 48 49 49 49 44 37 30 20 15 10 8 6 358 356 354 346 333 310 316 324 321 324 327 328 324 322 325 319 320 327 330 328 330 327 325 330 329 323 321 317 317 324 330 333 335 335 336 334 331 330 330 328 324 318 312 306 303 301 302 305 300 293 287 282 277 275 278
84 81 78 74 71 69 67 65 63 62 61 59 56 53 50 48 46 44 43 44 44 42 41 39 31 19 17 10 1 2 354 347 349 345 335 313 306 312 318 322 321 318 321 322 318 315 318 323 325 326 327 322 317 323 324 316 315 314 312 316 322 327 328 328 330 329 326 324 323 324 322 320 317 311 305 301 299 301 303 301 295 292 285 274 273
85 81 78 74 70 67 65 63 61 59 57 55 52 50 49 46 44 42 39 39 39 37 34 32 31 20 18 16 3 359 350 341 341 337 329 316 310 310 313 315 311 310 315 317 314 314 315 318 322 323 323 317 313 320 321 314 314 311 304 307 315 321 323 324 325 325 323 320 317 317 316 315 314 313 311 306 302 299 299 301 299 297 295 285 277
85 81 77 74 70 67 64 61 58 56 53 51 48 46 46 43 40 37 35 34 32 33 28 24 27 22 17 15 0 352 346 338 333 327 319 314 311 304 307 314 308 303 309 313 313 314 313 313 314 316 316 312 312 318 319 315 314 308 298 300 308 314 317 319 321 320 319 317 315 314 312 310 308 308 309 308 307 304 299 298 297 296 297 294 287
87 83 78 74 71 67 63 59 55 51 48 45 42 40 39 37 34 31 30 28 25 27 25 21 21 20 17 12 358 348 339 335 330 321 315 312 309 303 306 311 302 299 307 310 309 312 312 312 312 313 311 307 310 315 315 313 313 305 297 301 306 309 312 315 317 316 316 315 314 313 311 309 306 303 302 303 304 304 302 299 295 293 293 293 292
90 85 80 74 70 65 60 56 52 48 44 40 38 35 35 34 30 27 26 24 22 22 20 17 15 13 14 9 2 353 331 330 331 323 320 315 312 311 310 309 300 297 304 309 309 309 310 314 315 312 309 306 309 311 310 309 309 303 300 304 306 306 309 313 315 314 314 312 311 311 309 307 305 302 300 298 298 298 299 300 298 294 291 289 289
91 85 80 74 68 63 58 53 48 45 39 35 34 31 31 31 27 23 22 18 18 19 16 13 9 8 7 5 4 357 325 326 332 323 319 314 310 310 311 313 308 302 305 311 311 308 309 315 313 310 310 310 311 311 308 306 304 301 301 304 306 306 306 309 312 311 310 309 308 307 307 306 304 302 299 297 295 294 294 295 295 295 292 288 284
91 85 78 72 65 58 52 45 39 35 29 27 25 22 22 23 19 17 16 14 13 12 9 7 6 3 360 358 0 353 324 323 327 319 313 307 304 305 307 309 311 311 311 311 311 309 312 315 314 314 316 315 313 310 308 306 303 302 303 303 304 305 304 305 305 304 304 305 305 305 305 303 302 300 298 296 294 292 292 291 290 291 292 292 288
91 84 75 67 58 51 45 37 31 26 21 18 15 14 17 16 12 9 9 10 11 7 0 359 1 360 355 355 357 349 332 326 327 324 316 308 303 301 300 302 303 304 306 308 304 302 308 311 309 311 314 314 313 312 312 310 307 306 307 305 303 302 302 302 299 297 297 299 302 304 304 303 301 300 298 296 293 291 290 289 288 287 288 290 290
87 78 69 61 53 46 40 33 27 21 16 13 10 10 14 13 10 5 360 2 6 3 356 352 354 355 355 355 353 347 334 327 328 328 321 311 304 301 297 295 294 289 291 300 297 292 299 303 299 301 307 309 310 311 311 312 311 309 309 308 306 304 302 299 296 296 296 295 295 298 300 301 300 300 298 297 295 292 290 288 286 284 284 285 285
82 75 68 60 52 45 39 31 25 18 13 10 8 8 8 7 6 360 353 355 359 360 354 348 348 351 352 351 348 341 333 330 330 328 321 312 306 303 299 294 290 285 285 289 289 292 297 299 298 300 303 303 303 305 305 308 310 310 312 311 309 307 304 302 299 295 293 292 291 290 292 294 296 298 299 299 297 294 290 287 285 283 282 281 281
84 78 71 62 53 44 37 30 23 17 11 7 5 5 4 1 358 353 349 351 355 354 349 346 347 347 345 344 341 336 331 330 329 323 318 315 310 306 302 297 293 289 287 283 279 290 295 297 297 301 305 304 302 301 300 303 306 308 310 310 309 309 308 307 304 299 294 291 290 289 288 288 290 294 297 298 298 296 293 289 285 283 281 279 278
88 80 71 59 49 40 34 27 20 14 9 5 4 2 1 356 351 349 348 349 350 348 345 346 345 340 337 337 335 330 326 325 325 323 318 313 309 305 302 298 293 291 290 287 283 289 295 299 300 301 307 309 306 306 306 305 304 306 307 308 310 311 310 308 307 304 301 295 291 290 288 288 289 290 292 293 293 292 290 290 287 284 281 279 277
91 79 67 54 43 36 30 23 17 10 5 2 360 358 354 351 347 346 346 345 344 342 341 341 337 331 330 331 328 322 319 321 323 322 314 307 303 300 298 296 293 292 292 291 289 289 293 299 302 303 308 312 308 310 314 309 306 307 307 307 308 309 308 307 306 305 304 301 297 294 292 291 290 288 288 289 290 288 287 287 286 283 281 279 277
92 78 64 51 40 32 25 18 10 4 359 356 353 350 347 344 343 342 340 338 336 335 334 331 327 326 325 323 318 313 313 317 319 314 307 303 300 297 296 295 292 292 294 291 288 288 292 296 300 304 309 313 310 309 312 310 307 308 308 306 306 305 305 305 304 303 303 304 304 303 299 296 292 289 288 287 287 288 288 287 285 284 283 281 278
96 80 64 49 38 30 20 11 2 356 352 348 345 343 340 337 337 335 333 330 328 327 325 321 319 320 319 315 311 309 310 312 310 305 301 300 299 297 297 296 294 294 296 294 289 289 292 294 297 301 306 311 310 309 311 311 307 308 308 307 305 304 304 305 304 304 306 308 307 305 303 301 297 292 290 288 287 287 287 287 286 285 284 283 281
103 85 67 49 35 23 11 2 355 348 344 342 339 337 333 331 330 327 325 324 322 321 320 317 316 314 313 310 306 305 308 307 304 301 299 298 299 299 297 298 299 298 298 297 293 291 291 292 295 301 305 309 310 309 312 313 311 309 308 305 304 304 306 307 306 306 308 309 307 305 304 304 302 299 295 293 291 288 287 287 287 287 285 283 281
120 99 72 45 26 12 359 351 347 341 338 337 333 330 327 325 324 321 318 318 317 317 315 310 308 307 306 304 300 299 302 301 300 300 300 300 301 301 301 301 302 301 301 300 299 297 294 293 296 301 305 309 311 310 311 313 311 309 309 307 305 306 308 308 306 308 310 308 305 303 302 301 300 300 300 299 295 292 289 287 287 287 287 285 283
161 143 70 27 6 355 347 341 339 336 333 331 327 324 321 319 317 314 311 310 309 310 307 302 301 301 299 298 297 298 299 296 295 298 301 303 303 301 302 304 304 305 304 303 303 301 298 296 296 299 302 306 308 308 308 310 307 304 306 308 308 308 309 306 306 308 309 307 304 302 301 299 298 298 300 300 299 298 297 295 293 290 289 290 289
210 230 288 328 330 332 334 335 333 330 326 324 320 316 314 312 309 305 301 300 299 300 300 299 298 298 299 301 299 297 295 291 293 299 302 302 301 300 301 303 304 304 303 303 304 301 299 297 296 298 300 302 304 306 307 308 306 304 306 307 305 306 306 304 304 306 307 306 305 306 307 307 306 305 303 301 300 300 298 297 297 296 294 294 292
235 251 266 276 296 315 325 329 327 324 319 316 313 309 308 305 300 297 296 296 295 295 298 298 296 294 297 301 299 295 294 295 300 305 305 298 292 293 297 299 300 300 299 300 300 299 297 294 294 297 298 298 302 305 305 305 304 303 306 304 301 302 305 304 302 304 305 305 306 307 308 311 310 307 304 301 300 300 297 294 292 291 289 291 292
244 254 261 267 281 303 317 321 318 315 311 308 306 304 302 299 296 294 294 293 293 294 295 294 292 290 292 297 297 297 299 302 305 307 302 292 287 286 288 291 293 294 296 297 296 295 294 291 292 296 296 295 297 300 299 299 299 299 301 302 301 303 305 303 301 303 305 306 307 305 306 309 309 305 302 301 300 300 298 294 291 287 284 284 286
247 251 256 263 278 296 307 309 308 306 303 302 301 299 296 294 291 290 290 290 291 293 292 290 290 289 288 291 295 299 302 304 304 303 297 293 291 287 286 287 285 285 288 290 291 290 288 288 289 291 291 291 292 293 293 295 295 294 296 298 298 300 302 300 300 303 305 307 307 303 302 306 305 301 300 300 300 299 296 293 291 290 288 285 285
246 250 255 263 276 290 296 298 297 297 297 296 295 293 291 287 285 283 283 285 288 290 288 286 287 287 287 290 293 297 302 303 303 304 302 297 292 290 291 290 284 280 279 280 284 285 284 284 284 284 284 285 287 288 288 289 290 290 291 291 291 292 292 293 294 296 301 306 305 300 299 302 303 299 297 298 298 296 293 291 291 291 291 290 289
244 247 253 261 273 283 288 290 290 290 292 292 290 289 287 283 280 276 277 279 282 284 282 279 279 282 286 291 292 294 299 300 299 300 298 296 295 294 295 292 284 278 273 274 278 281 281 280 278 277 277 278 281 283 282 283 285 287 288 286 286 286 285 286 287 289 296 301 299 294 294 298 301 297 294 296 298 296 293 292 292 292 292 293 293
242 245 252 262 270 277 281 283 284 285 287 288 286 285 283 281 277 273 274 278 280 280 277 274 276 281 285 288 289 291 295 293 292 293 294 295 296 294 293 290 285 281 277 277 279 279 278 276 273 272 273 274 275 278 279 279 279 280 281 282 283 283 282 282 282 285 291 292 289 288 290 296 300 296 293 296 298 295 295 295 294 293 292 292 293
240 244 252 261 267 271 275 278 279 281 285 285 284 283 280 279 277 273 273 276 277 279 280 279 280 282 283 284 285 288 290 289 289 292 295 296 295 293 292 291 290 290 287 286 286 284 284 280 271 267 269 271 274 277 279 278 276 275 277 278 281 282 281 281 280 281 285 287 285 286 287 293 299 294 291 296 298 296 296 297 296 295 293 292 293
239 243 252 260 265 268 270 273 276 280 284 284 282 282 280 279 276 273 274 277 277 280 284 285 282 278 278 281 283 285 286 288 289 292 295 297 296 295 295 294 294 293 290 290 289 284 282 280 274 272 275 277 278 281 283 282 279 279 279 277 277 278 277 277 278 280 285 291 291 288 286 291 296 293 292 296 298 296 297 297 297 298 296 295 293
239 243 251 259 263 265 267 271 276 280 283 283 282 282 281 279 276 274 277 279 278 279 282 281 278 275 274 277 280 284 286 288 291 295 298 300 299 297 297 295 293 291 289 292 292 284 278 280 283 288 292 290 287 287 289 289 287 287 287 283 281 281 278 277 281 285 290 292 291 287 285 288 292 292 292 296 295 294 297 298 298 299 298 299 300
240 245 252 257 259 262 266 270 275 279 282 282 280 281 281 278 276 275 277 279 276 274 278 278 276 275 275 277 279 283 286 289 294 300 303 303 301 299 297 296 295 294 295 300 301 296 291 292 293 294 294 293 291 290 291 291 290 291 289 286 286 285 280 278 282 288 288 286 286 286 282 283 288 291 294 297 295 292 294 297 297 298 299 302 304
240 245 251 255 258 261 265 269 273 277 281 281 277 279 280 276 274 273 274 275 273 272 277 279 279 278 280 284 285 285 288 293 299 303 305 305 304 304 305 305 303 303 304 307 307 305 303 301 299 296 294 294 293 291 290 289 288 286 284 282 282 282 278 277 281 287 287 282 284 286 283 283 288 289 292 297 295 292 294 296 296 297 299 300 300